NOAA 16 DEB, 41127

Orbit data source: Space-Track

NOAA 16 DEB, 41127 is space debris in SSO originally from a launch on Thu, 21 Sep 2000 UTC launched from the Air Force Western Test Range (AFWTR). Debris objects in space refer to the collection of defunct objects orbiting the Earth. Examples of debris include non-operational satellites, rocket bodies, and fragments generated from explosions, collisions, or faulty payload assembly.

Loading next visibility...
NOAA 16 DEB details
Identifier
41127, 2000-055BJ
Orbit
SSO
Last TLE update2 days ago
Origin
Flag of USNOAA (US)
ManufacturerUnknown
MissionSpacecraft
Bus & MotorUnknown
MassUnknown
Launch date (UTC)
2000-09-21 (24 years ago)
Launch vehicleUnknown
Launch site
Air Force Western Test Range (AFWTR)
Object type
Payload
Rocket body
Debris
Shape & HBRUnknown
Radar Cross SectionSmall (<0.1 m²)

Expand to show TLE details & history

TLE from 2 days ago
0 NOAA 16 DEB
1 41127U 00055BJ  24338.55575119  .00048736  00000-0  73412-2 0  9990
2 41127  98.8588 187.8831 0045574  84.1215 276.5183 14.73476904472487
Epoch: 2024-12-03T13:20Z
Definitive object data (Epoch: 2024-12-03T13:20:16.902Z)
Latitude-0.00001°
Longitude-85.05089°
Altitude649.48 km
Speed7.535 km/s
True Right ascension12h 31m 31s
True Declination0° 00' 00"
Sunlit
Object was in daylight at TLE epoch
Visualization TLE readout
Latitude17.79094°
Longitude99.83369°
Altitude648.156 km
Speed7.537 km/s
Apparent Right ascension22h 52m 26s
Apparent Declination-11° 36' 34"
Sunlit
Object is in full shadow
Visualization observer readout
Local Sidereal Time08:02:20
Azimuth295.008° NW
Elevation-43.063°
Doppler factor1
Orbital elements
Apogee altitude679.102 km
Perigee altitude615.068 km
Semi-major axis7,025.222 km
Eccentricity0.0045574
Inclination98.8588°
RAAN187.8831°
Arg. of periapsis84.1215°
True anomaly275.99911°
Mean anomaly276.5183°
Eccentric anomaly276.25874°
Mean motion3.68598 °/min
BSTAR0.0073412
Orbital period97.67 mins
Loading maneuver chart data...
Loading historical data...
Loading historical data...
Loading historical data...
Loading historical data...
Loading historical data...
Loading historical data...
Loading historical data...

NOAA 16 DEB Visibility forecast

Observer location: undefined°, undefined

Span
Click to sort rows by Start time (UTC) header in descending order
Start Az.
Max El. time (UTC)
Max El. Az.
Max El.
End time (UTC)
End Az.
6 mins2024-12-05 14:22:00.781Z182.278° SSW2024-12-05 14:24:00.781Z226.117° WSW41.046°2024-12-05 14:28:00.781Z338.182° N
5 mins2024-12-06 02:14:00.781Z58.186° ENE2024-12-06 02:16:00.781Z93.063° ESE20.499°2024-12-06 02:19:00.781Z141.98° SSE
6 mins2024-12-06 03:50:00.781Z344.53° N2024-12-06 03:53:00.781Z283.905° WNW27.465°2024-12-06 03:56:00.781Z233.114° WSW
|